This is the latest recevied weather packets stored in our database for station/object K1TTC. If no packets are shown the sender has not sent any weather packets the latest 10 day(s).
| Time | Temp. | Humidity | Pressure | Rain* | Wind** | Luminosity | Snow |
|---|---|---|---|---|---|---|---|
| 1777920150 | 22.22° C | 22% | 1008.2 hPa | 0 mm | - | 810 W/m² | - |
| 1777919548 | 22.78° C | 22% | 1008.3 hPa | 0 mm | - | 858 W/m² | - |
| 1777918948 | 22.22° C | 22% | 1008.3 hPa | 0 mm | - | 849 W/m² | - |
| 1777918348 | 22.78° C | 22% | 1008.1 hPa | 0 mm | - | 860 W/m² | - |
| 1777917749 | 22.22° C | 22% | 1008.2 hPa | 0 mm | - | 865 W/m² | - |
| 1777917146 | 22.78° C | 24% | 1008.3 hPa | 0 mm | - | 877 W/m² | - |
| 1777916614 | 22.22° C | 24% | 1008.2 hPa | 0 mm | - | 896 W/m² | - |
| 1777915944 | 21.67° C | 26% | 1008.5 hPa | 0 mm | - | 896 W/m² | - |
| 1777915345 | 21.67° C | 25% | 1008.5 hPa | 0 mm | - | 905 W/m² | - |
| 1777914744 | 21.67° C | 25% | 1008.7 hPa | 0 mm | - | 911 W/m² | - |
| 1777914146 | 21.11° C | 25% | 1008.7 hPa | 0 mm | - | 918 W/m² | - |
| 1777913544 | 21.11° C | 25% | 1008.6 hPa | 0 mm | - | 925 W/m² | - |
| 1777912944 | 20.56° C | 28% | 1008.8 hPa | 0 mm | - | 923 W/m² | - |
| 1777912343 | 20.56° C | 25% | 1009 hPa | 0 mm | - | 928 W/m² | - |
| 1777911744 | 20.56° C | 27% | 1008.8 hPa | 0 mm | - | 926 W/m² | - |
| 1777911240 | 20° C | 27% | 1009 hPa | 0 mm | - | 923 W/m² | - |
| 1777910544 | 20.56° C | 26% | 1009.1 hPa | 0 mm | - | 919 W/m² | - |
| 1777909944 | 20.56° C | 29% | 1009.2 hPa | 0 mm | - | 909 W/m² | - |
| 1777909344 | 19.44° C | 30% | 1009.4 hPa | 0 mm | - | 904 W/m² | - |
| 1777908745 | 19.44° C | 27% | 1009.5 hPa | 0 mm | - | 896 W/m² | - |
| 1777908146 | 19.44° C | 30% | 1009.7 hPa | 0 mm | - | 889 W/m² | - |
| 1777907543 | 18.89° C | 30% | 1009.9 hPa | 0 mm | - | 756 W/m² | - |
| 1777906944 | 18.89° C | 31% | 1009.9 hPa | 0 mm | - | 800 W/m² | - |
| 1777906344 | 18.89° C | 30% | 1009.9 hPa | 0 mm | - | 863 W/m² | - |
| 1777905743 | 18.33° C | 32% | 1010.1 hPa | 0 mm | - | 846 W/m² | - |
* Rain latest hour (hover to see other rain measurements)
** Current wind speed in m/s (hover to see current wind gust speed)